Weather History for Goshen, IN

Change the Weather History Date:

Saturday, December 21, 2013

  Actual Average Record
Temperature  
Mean Temperature 35 °F -  
Max Temperature 37 °F 33 °F 61 °F (1967)
Min Temperature 33 °F 20 °F -8 °F (1989)
Degree Days  
Heating Degree Days 30    
Moisture  
Dew Point 34 °F    
Average Humidity 94    
Maximum Humidity 100    
Minimum Humidity 87    
Precipitation  
Precipitation 0.96 in - - ()
Sea Level Pressure  
Sea Level Pressure 29.75 in    
Wind  
Wind Speed 6 mph (NNE)    
Max Wind Speed 18 mph    
Max Gust Speed 23 mph    
Visibility 2 miles    
Events Fog , Rain    
Averages and records for this station are not official NWS values.
T = Trace of Precipitation, MM = Missing Value Source: NWS Daily Summary

Daily Weather History Graph

Daily Weather History Graph

Search for Another Location

Airport:

Trip Planner

Search our weather history database for the weather conditions in past years. The results will help you decide how hot, cold, wet, or windy it might be!

Date:

Astronomy

Dec. 21, 2013 Rise Set
Actual Time 8:06 AM EST 5:16 PM EST
Civil Twilight 7:34 AM EST 5:47 PM EST
Nautical Twilight 6:59 AM EST 6:22 PM EST
Astronomical Twilight 6:26 AM EST 6:56 PM EST
Moon 9:35 PM EST (12/21) 10:29 AM EST (12/21)
Length of Visible Light 10h 13m
Length of Day
9h 10m
Waning Gibbous, 84% of the Moon is Illuminated
Dec 21
Waning Gibbous
Dec 25
Last Quarter
Jan 1
New
Jan 7
First Quarter
Jan 15
Full

Hourly Weather History & Observations

Time (EST) Temp. Windchill Dew Point Humidity Pressure Visibility Wind Dir Wind Speed Gust Speed Precip Events Conditions
12:53 AM 37.0 °F 31.0 °F 36.0 °F 96% 29.78 in 0.2 mi WSW 8.1 mph - N/A Fog Fog
1:53 AM 36.0 °F 31.1 °F 35.1 °F 97% 29.77 in 0.5 mi West 5.8 mph - N/A Fog Fog
2:30 AM 35.6 °F 29.9 °F 35.6 °F 100% 29.77 in 0.8 mi WSW 6.9 mph - N/A   Overcast
2:39 AM 35.6 °F 30.7 °F 33.8 °F 93% 29.76 in 1.0 mi WSW 5.8 mph - N/A   Overcast
2:53 AM 36.0 °F 32.1 °F 34.0 °F 93% 29.78 in 1.2 mi SW 4.6 mph - N/A   Overcast
3:13 AM 35.6 °F 31.7 °F 33.8 °F 93% 29.77 in 2.0 mi SW 4.6 mph - N/A   Overcast
3:43 AM 35.6 °F 32.8 °F 33.8 °F 93% 29.76 in 1.2 mi West 3.5 mph - N/A   Overcast
3:53 AM 35.1 °F 29.3 °F 33.1 °F 92% 29.81 in 0.8 mi West 6.9 mph - N/A   Overcast
4:06 AM 35.6 °F 30.7 °F 33.8 °F 93% 29.79 in 0.5 mi West 5.8 mph - N/A Fog Fog
4:53 AM 35.1 °F 30.1 °F 34.0 °F 96% 29.82 in 1.2 mi WSW 5.8 mph - N/A   Overcast
5:09 AM 35.6 °F 31.7 °F 33.8 °F 93% 29.79 in 2.0 mi West 4.6 mph - N/A   Overcast
5:28 AM 35.6 °F 31.7 °F 33.8 °F 93% 29.77 in 1.8 mi WNW 4.6 mph - N/A   Overcast
5:50 AM 35.6 °F 32.8 °F 33.8 °F 93% 29.76 in 0.5 mi West 3.5 mph - N/A Fog Fog
5:53 AM 35.1 °F 32.2 °F 34.0 °F 96% 29.78 in 0.5 mi West 3.5 mph - N/A Fog Fog
6:53 AM 35.1 °F 32.2 °F 34.0 °F 96% 29.81 in 0.2 mi SSW 3.5 mph - N/A Fog Fog
7:53 AM 35.1 °F 32.2 °F 33.1 °F 92% 29.82 in 0.2 mi WNW 3.5 mph - 0.01 in Fog Fog
8:53 AM 35.1 °F 32.2 °F 34.0 °F 96% 29.83 in 0.2 mi North 3.5 mph - 0.02 in Fog , Rain Light Rain
9:53 AM 36.0 °F 31.1 °F 34.0 °F 93% 29.81 in 0.5 mi SE 5.8 mph - 0.02 in Fog Fog
10:06 AM 35.6 °F - 35.6 °F 100% 29.80 in 1.0 mi Calm Calm - 0.00 in Rain Light Rain
10:32 AM 35.6 °F 32.8 °F 35.6 °F 100% 29.80 in 2.5 mi ESE 3.5 mph - 0.01 in   Overcast
10:53 AM 36.0 °F - 35.1 °F 97% 29.82 in 2.5 mi Calm Calm - 0.01 in   Overcast
11:04 AM 35.6 °F - 35.6 °F 100% 29.81 in 3.0 mi Calm Calm - 0.00 in   Overcast
11:19 AM 35.6 °F - 35.6 °F 100% 29.81 in 2.0 mi Calm Calm - 0.01 in Rain Light Rain
11:53 AM 36.0 °F 32.1 °F 35.1 °F 97% 29.79 in 3.0 mi NE 4.6 mph - 0.02 in   Overcast
12:20 PM 37.4 °F 32.1 °F 33.8 °F 87% 29.79 in 5.0 mi North 6.9 mph - N/A   Overcast
12:53 PM 36.0 °F 31.1 °F 34.0 °F 93% 29.80 in 2.0 mi NE 5.8 mph - 0.01 in Rain Light Rain
1:07 PM 35.6 °F - 35.6 °F 100% 29.78 in 1.8 mi Calm Calm - 0.01 in Rain Light Rain
1:18 PM 37.4 °F - 35.6 °F 93% 29.78 in 2.0 mi Calm Calm - 0.02 in Rain Light Rain
1:31 PM 35.6 °F 32.8 °F 35.6 °F 100% 29.78 in 2.0 mi NNE 3.5 mph - 0.04 in Rain Light Rain
1:49 PM 35.6 °F 32.8 °F 33.8 °F 93% 29.78 in 2.0 mi North 3.5 mph - 0.06 in Rain Light Rain
1:53 PM 36.0 °F 33.3 °F 34.0 °F 93% 29.80 in 2.0 mi North 3.5 mph - 0.07 in Rain Light Rain
2:33 PM 35.6 °F 29.9 °F 33.8 °F 93% 29.75 in 2.5 mi NE 6.9 mph - 0.03 in Rain Light Rain
2:53 PM 36.0 °F 30.3 °F 34.0 °F 93% 29.77 in 2.5 mi NE 6.9 mph - 0.05 in Rain Light Rain
3:53 PM 36.0 °F 29.6 °F 33.1 °F 89% 29.78 in 2.5 mi NE 8.1 mph - 0.09 in Rain Light Rain
4:12 PM 35.6 °F 29.2 °F 33.8 °F 93% 29.74 in 2.5 mi ENE 8.1 mph - 0.02 in Rain Light Rain
4:21 PM 35.6 °F 29.2 °F 33.8 °F 93% 29.73 in 3.0 mi ENE 8.1 mph - 0.03 in Rain Light Rain
4:37 PM 35.6 °F 28.6 °F 33.8 °F 93% 29.73 in 5.0 mi ENE 9.2 mph - 0.03 in Rain Light Rain
4:53 PM 36.0 °F 28.5 °F 33.1 °F 89% 29.74 in 4.0 mi ENE 10.4 mph - 0.04 in Rain Light Rain
5:08 PM 35.6 °F 28.6 °F 33.8 °F 93% 29.72 in 4.0 mi ENE 9.2 mph - 0.01 in Rain Light Rain
5:16 PM 35.6 °F 28.6 °F 33.8 °F 93% 29.72 in 5.0 mi East 9.2 mph - 0.02 in Rain Light Rain
5:53 PM 36.0 °F 30.3 °F 33.1 °F 89% 29.75 in 4.0 mi ENE 6.9 mph - 0.04 in Rain Light Rain
6:53 PM 35.1 °F 29.3 °F 33.1 °F 92% 29.76 in 3.0 mi NE 6.9 mph - 0.11 in Rain Light Rain
7:53 PM 35.1 °F 26.9 °F 33.1 °F 92% 29.75 in 3.0 mi NE 11.5 mph - 0.13 in Rain Light Rain
8:53 PM 35.1 °F 24.5 °F 33.1 °F 92% 29.66 in 4.0 mi NE 18.4 mph 21.9 mph 0.12 in Rain Light Rain
9:53 PM 35.1 °F 25.5 °F 32.0 °F 89% 29.65 in 5.0 mi NE 15.0 mph 21.9 mph 0.12 in Rain Light Rain
10:27 PM 35.6 °F 26.2 °F 32.0 °F 87% 29.61 in 4.0 mi NE 15.0 mph - 0.05 in Rain Light Rain
10:38 PM 33.8 °F 24.3 °F 32.0 °F 93% 29.63 in 6.0 mi NE 13.8 mph - 0.05 in Rain Light Rain
10:53 PM 35.1 °F 25.5 °F 32.0 °F 89% 29.63 in 3.0 mi ENE 15.0 mph - 0.08 in Rain Rain
11:00 PM 33.8 °F 23.5 °F 32.0 °F 93% 29.58 in 3.0 mi ENE 16.1 mph - 0.01 in Rain Light Rain
11:27 PM 33.8 °F 23.9 °F 32.0 °F 93% 29.58 in 6.0 mi ENE 15.0 mph 23.0 mph 0.02 in   Overcast
11:53 PM 35.1 °F 25.2 °F 32.0 °F 89% 29.61 in 10.0 mi ENE 16.1 mph 23.0 mph 0.02 in   Overcast